Погода Иваново

Погода Иваново : погода сейчас, прогноз погоды и архив. Всё, что Вы хотите узнать о погоде Иваново!

Хотите узнать прогноз погоды Иваново? Тогда Вам сюда: Погода Иваново

Поиск расширенной информации на нашем сайте:

Другие новости

Новости СМИ2

Главная страница сайта

Новости сайта

03.07.2017

Напоминаем, что на нашем специализированном сайте Метеоцентр.Азия вы можете получить высокодетализированные автоматические прогнозы погоды по пунктам России, СНГ и мира в авиационном формате (включающие направление и скорость ветра, видимость, явления погоды, количество и форму облачности, нижнюю и верхнюю границу облачности).


Погода Иваново - сегодня

Время (UTC), дата Ветер
(°,м/с) 
Видим.   Явления Облачность Т
(°С)
Тd
(°С)
f(%) Тe
(°С)
Pmin
(гПа)
dP
(гПа)
Po
(мм)
O2
(г/м3)
Тmin Tmax R s Состояние
почвы
06 15.08.17 330 (СЗ) 10 км    10/8 300 м средняя 
[Sc|Ac trans]
+17.4 +14.6 84 +26  1022.9  1.7  756  283           
09 15.08.17 350 (С) 5{10}  10 км    3/3 600 м 
[Cu hum]
+22 +11.7 52 +25  1023.6  0.8  757  280           
12 15.08.17 330 (СЗ) 5-10{10}  10 км    3/3 1500 м 
[Cu hum]
+22.3 +10.1 46 +23  1024.5  0.9  757  280           
15 15.08.17 350 (С) 3{10}  10 км    ясно 
+21 +8.5 45 +21  1025.2  0.6  758  282    +22.8       
18 15.08.17 320 (СЗ) 10 км    ясно 
+13 +9.3 78 +14  1027.2  1.6  759  290           
21 15.08.17 тихо ()   10 км    ясно 
+10.7 +8.5 86 +11  1028.2  0.8  760  293           
00 16.08.17 320 (СЗ) 10 км    ясно 
+9.4 +8.1 92 +10  1028.8  0.5  760  295           
03 16.08.17 310 (СЗ) 10 км    3/0 средняя 
[Ac trans]
+9.1 +8 93 +10  1029.8  0.9  761  295  +8.2        сухая 
06 16.08.17 060 (СВ) 10 км    1/0 средняя 
[Ac trans]
+19.1 +10.1 56 +21  1029.7  0.5  761  285           
09 16.08.17 100 (В) 10 км    3/3 1000 м 
[Cu hum]
+22.7 +9.3 42 +23  1029.6  761  282           
12 16.08.17 070 (В) 10 км    3/3 1500 м 
[Cu hum]
+23.3 +8.6 39 +23  1028.7  -0.8  761  281           
15 16.08.17 080 (В) 10 км    1/1 1500 м 
[Cu hum]
+23.1 +9.7 43 +24  1027.8  -0.9  760  281    +24.3       
18 16.08.17 тихо ()   10 км    ясно 
+14.9 +12 83 +19  1028.4  0.2  760  288           
21 16.08.17 140 (ЮВ) 10 км    ясно 
+12.2 +10.7 91 +15  1029  0.4  760  291           
00 17.08.17 тихо ()   10 км    3/0 средняя 
[Ac trans]
+10.1 +8.9 92 +10  1029.5  0.4  761  294           
03 17.08.17 120 (ЮВ) 10 км  местами туман поземный  4/4 600 м 
[Cu hum]
+10.9 +9.7 92 +13  1029.7  0.2  761  293  +9.9        сухая 
06 17.08.17 210 (ЮЗ) 10 км    4/4 1000 м 
[Cu hum]
+19.7 +11.9 61 +24  1029.4  0.2  761  284           
09 17.08.17 170 (Ю) 10 км    4/4 1000 м 
[Cu hum]
+22.9 +9.7 43 +23  1028.7  -0.6  760  281           
12 17.08.17 160 (Ю) 10 км    4/4 1000 м 
[Cu hum]
+23.1 +10.6 45 +25  1027.7  -0.9  760  280           
15 17.08.17 170 (Ю) 10 км    3/0 верхняя 
[Ci fib]
+23.1 +9.8 43 +24  1026.8  -0.9  759  280    +24.3       
18 17.08.17 130 (ЮВ) 10 км    3/0 верхняя 
[Ci fib]
+14.1 +11.7 85 +18  1027.3  759  289           
21 17.08.17 тихо ()   10 км    3/0 верхняя 
[Ci fib]
+12.5 +10.1 85 +14  1027.4  0.1  759  291           
00 18.08.17 100 (В) 10 км    3/0 верхняя 
[Ci fib]
+12.6 +11 90 +16  1027.2  -0.2  759  290           
03 18.08.17 130 (ЮВ) 10 км    3/0 верхняя 
[Ci fib]
+11.6 +10.2 91 +14  1027.5  0.1  759  292  +11.6        сухая 
06 18.08.17 180 (Ю) 10 км    5/0 средняя, верхняя 
[Ac trans|Ci fib]
+20.3 +11.9 58 +24  1026.8  -0.2  759  282  +11.6         
Время (UTC), дата Ветер
(°,м/с) 
Видим.   Явления Облачность Т
(°С)
Тd
(°С)
f(%) Тe
(°С)
Pmin
(гПа)
dP
(гПа)
Po
(мм)
O2
(г/м3)
Тmin Tmax R s Состояние
почвы

Для получения пояснительной информации подведите курсор к названию столбца.

ПОГОДА Иваново - архив

Всё, что Вы хотите узнать о погоде Иваново - удобно и подробно!

Выберите нужную дату (начиная с 1 января 2015* года) и нажмите кнопку "Найти".
Будут отображены архивные сводки погоды по пункту Иваново, начиная с указанной даты.


Отображать данные в формате CSV (для использования в таблицах Excel)


Внимание! Наш архив погоды предназначен исключительно для личного некоммерческого использования в познавательных целях. Если Вам необходимы официальные справки о состоянии погоды (для производственных, юридических, коммерческих и т.п. целей), обращайтесь в органы Росгидромета.

*Примечание: данная дата относится к архиву по метеостанциям СССР (Россия, СНГ, Балтия).
Архив по метеостанциям Зарубежной Европы и Азии (кроме Китая) хранится 10 дней, по другим регионам земного шара (Китай, Африка, Америка, Австралия, Океания) - 1 день.

Иваново - район местоположения метеостанции


Название, широта, долгота, высота метеостанции:
Иваново (Южный) 56.9°ш. 40.1°д. 126 м над ур. моря [Российская Федерация]

Дополнительная информация

В oтличие oт бoльшинства пoгoдных сайтoв мы публикуем пoдрoбную метеoинфoрмацию в детальнoм прoфессиoнальнoм фoрмате.

Характеристики температуры и влажнoсти вoздуха измеряются на высoте 2 м в тени вдали oт зданий и деревьев.
Скoрoсть ветра измеряется на высoте 10 м (на урoвне рoста челoвека скoрoсть ветра ниже в 1.5-2 раза). Если метеoстанция нахoдится в гoрoде или в лесу, тo скoрoсть ветра занижена на 2-4 м/с пo сравнению с oткрытым местoм. Скoрoсть ветра над акватoриями крупных рек и oзёр, а также на вершинах хoлмoв на 2-5 м/с выше, чем в oбычных услoвиях.
Атмoсфернoе давление в разных тoчках местнoсти мoжет значительнo oтличаться oт давления на метеoстанции, в зависимoсти oт услoвий рельефа (при пoдъёме на 10 м давление пoнижается примернo на 1 мм рт.ст.).